Observations for Trim Market St
| Time | AQI | Temp °C | Hum % | Pres Pa | CO μg/m³ | H₂S μg/m³ | NO μg/m³ | NO₂ μg/m³ | O₃ μg/m³ | SO₂ μg/m³ | PM1 μg/m³ | PM2.5 μg/m³ | PM10 μg/m³ |
|---|---|---|---|---|---|---|---|---|---|---|---|---|---|
| Tuesday 11 August 2026 | |||||||||||||
| 23:43 | 2 | 21.6 | 53 | 55,985 | 0 | 0 | 1.27 | 23.11 | 61.78 | 0 | 0.71 | 3.35 | 3.88 |
| 23:40 | 2 | 21.7 | 53 | 55,915 | 0 | 0 | 1.28 | 14.51 | 60.82 | 0 | 0.71 | 2.84 | 3.15 |
| 23:38 | 2 | 21.7 | 53 | 55,912 | 0 | 0 | 1.26 | 19.68 | 58.97 | 0 | 0.71 | 3.36 | 3.88 |
| 23:36 | 2 | 21.7 | 52 | 55,831 | 0 | 0 | 1.29 | 30.85 | 59.42 | 0 | 0.71 | 2.86 | 3.14 |
| 23:35 | 2 | 21.7 | 52 | 55,773 | 0 | 0 | 1.29 | 27.09 | 61.12 | 0 | 0.71 | 3.38 | 3.87 |
| 23:33 | 2 | 21.7 | 52 | 55,743 | 0 | 0 | 1.28 | 15.8 | 60.57 | 0 | 0.71 | 2.87 | 3.13 |
| 23:23 | 2 | 21.9 | 52 | 55,812 | 0 | 0 | 1.29 | 22.8 | 56.8 | 0 | 1.43 | 3.4 | 3.85 |
| 23:22 | 2 | 21.9 | 52 | 55,839 | 0 | 0 | 1.28 | 17.7 | 61.58 | 0 | 1.43 | 3.92 | 4.58 |
| 23:21 | 2 | 21.9 | 52 | 55,906 | 0 | 0 | 1.27 | 19.04 | 63.3 | 0 | 2.14 | 4.43 | 6.06 |
| 23:20 | 2 | 21.9 | 52 | 55,972 | 0 | 0 | 1.28 | 34.97 | 53.44 | 0 | 0 | 2.39 | 3.84 |
| 23:19 | 2 | 21.9 | 51 | 56,070 | 0 | 0 | 1.29 | 13.64 | 61.03 | 0 | 1.43 | 3.93 | 5.32 |
| 23:18 | 2 | 22 | 51 | 55,999 | 0 | 0 | 1.31 | 17 | 61.57 | 0 | 0.71 | 2.91 | 3.1 |
| 23:17 | 2 | 22 | 51 | 56,116 | 0 | 0 | 1.3 | 22.71 | 56.68 | 0 | 0 | 1.88 | 2.07 |
| 23:16 | 2 | 22 | 51 | 56,267 | 0 | 0 | 1.29 | 20.29 | 55.29 | 0 | 0.71 | 3.43 | 4.57 |
| 23:15 | 2 | 22 | 51 | 56,456 | 0 | 0 | 1.27 | 17.55 | 64.7 | 0 | 2.14 | 4.46 | 6.05 |
| 23:14 | 2 | 22 | 51 | 56,366 | 0 | 0 | 1.27 | 18.9 | 57.18 | 0 | 0.71 | 2.92 | 3.09 |
| 23:13 | 2 | 22 | 51 | 56,585 | 0 | 0 | 1.26 | 12.4 | 64.3 | 0 | 2.14 | 3.94 | 4.57 |
| 23:12 | 2 | 22 | 51 | 56,494 | 0 | 0 | 1.26 | 19.92 | 54.67 | 0 | 1.43 | 2.92 | 3.09 |
| 23:11 | 2 | 22.1 | 51 | 56,681 | 0 | 0 | 1.26 | 16.56 | 59.36 | 0 | 1.43 | 3.44 | 3.83 |
| 23:10 | 2 | 22.1 | 51 | 56,679 | 0 | 0 | 1.29 | 14.09 | 63.56 | 0 | 2.14 | 4.47 | 5.31 |